Zurück zum Katalog

STARLINK-3959

AktivKommunikationVLEO
NORAD 52564·PAYLOAD·🇺🇸 United States

Gestartet May 13, 2022 von Vandenberg Space Force Base

Loading…

Nächste Überflüge (nächste 24 Stunden)

TLE

AktuellSource: CelesTrak SupGP

Epoche: Sep 14, 2026, 21:25 UTC

1 52564C 22051AH  26257.89284722 -.00028511  00000+0 -91678-3 0  2575
2 52564  53.1611   0.5865 0001406  83.2673  37.2497 15.31718206    12

Verfolge STARLINK-3959 in Echtzeit mit AllMySat

Download on the App Store